| time (UTC) | temp F | wind direction | speed MPH | gust MPH | rain 1hr in | rain 24hr in | rain mn in | humidity % | barometer mb |
| 20260902094550 | 65 | 0.0 | 0.0 | 0.00 | 0.00 | 0.00 | 50 | 1007.1 | |
| 20260902093057 | 64 | 0.0 | 0.0 | 0.00 | 0.00 | 0.00 | 51 | 1007.1 | |
| 20260902091535 | 63 | 0.0 | 0.0 | 0.00 | 0.00 | 0.00 | 52 | 1007.2 | |
| 20260902090032 | 63 | 0.0 | 0.0 | 0.00 | 0.00 | 0.00 | 53 | 1007.2 | |
| 20260902084532 | 62 | 0.0 | 0.0 | 0.00 | 0.00 | 0.00 | 53 | 1007.2 | |
| 20260902083020 | 62 | 0.0 | 0.0 | 0.00 | 0.00 | 0.00 | 54 | 1007.2 | |
| 20260902081509 | 61 | 0.0 | 0.0 | 0.00 | 0.00 | 0.00 | 56 | 1007.3 | |
| 20260902080001 | 60 | 0.0 | 0.0 | 0.00 | 0.00 | 0.00 | 55 | 1007.3 | |
| 20260902074602 | 60 | 0.0 | 0.0 | 0.00 | 0.00 | 0.00 | 57 | 1007.3 | |
| 20260902073104 | 59 | 0.0 | 0.0 | 0.00 | 0.00 | 0.00 | 61 | 1007.2 | |
| 20260902071548 | 58 | 0.0 | 0.0 | 0.00 | 0.00 | 0.00 | 63 | 1007.1 | |
| 20260902070043 | 57 | 0.0 | 0.0 | 0.00 | 0.00 | 0.00 | 69 | 1007.0 | |
| 20260902064543 | 56 | 0.0 | 0.0 | 0.00 | 0.00 | 0.00 | 71 | 1007.0 | |
| 20260902063035 | 55 | 0.0 | 0.0 | 0.00 | 0.00 | 0.00 | 73 | 1006.9 | |
| 20260902061531 | 53 | 0.0 | 0.0 | 0.00 | 0.00 | 0.00 | 81 | 1006.8 | |
| 20260902060027 | 51 | 0.0 | 0.0 | 0.00 | 0.00 | 0.00 | 91 | 1006.6 | |
| 20260902054535 | 51 | 0.0 | 0.0 | 0.00 | 0.00 | 0.00 | 92 | 1006.5 | |
| 20260902053020 | 50 | 0.0 | 0.0 | 0.00 | 0.00 | 0.00 | 93 | 1006.5 | |
| 20260902051513 | 49 | 0.0 | 0.0 | 0.00 | 0.00 | 0.00 | 94 | 1006.5 | |
| 20260902050012 | 49 | 0.0 | 0.0 | 0.00 | 0.00 | 0.00 | 94 | 1006.4 | |
| 20260902044504 | 49 | 0.0 | 0.0 | 0.00 | 0.00 | 0.00 | 94 | 1006.4 | |
| 20260902043100 | 49 | 0.0 | 0.0 | 0.00 | 0.00 | 0.00 | 94 | 1006.4 | |
| 20260902041611 | 49 | 0.0 | 0.0 | 0.00 | 0.00 | 0.00 | 94 | 1006.3 | |
| 20260902040052 | 49 | 0.0 | 0.0 | 0.00 | 0.00 | 0.00 | 93 | 1006.2 | |
| 20260902034547 | 49 | 0.0 | 0.0 | 0.00 | 0.00 | 0.00 | 93 | 1006.2 | |
| 20260902033043 | 49 | 0.0 | 0.0 | 0.00 | 0.00 | 0.00 | 93 | 1006.2 | |
| 20260902031538 | 50 | 0.0 | 0.0 | 0.00 | 0.00 | 0.00 | 93 | 1006.2 | |
| 20260902030034 | 50 | 0.0 | 0.0 | 0.00 | 0.00 | 0.00 | 93 | 1006.1 | |
| 20260902024537 | 50 | 0.0 | 0.0 | 0.00 | 0.00 | 0.00 | 93 | 1006.2 | |
| 20260902023027 | 51 | 0.0 | 0.0 | 0.00 | 0.00 | 0.00 | 93 | 1006.1 | |
| 20260902021538 | 52 | 0.0 | 0.0 | 0.00 | 0.00 | 0.00 | 93 | 1006.3 | |
| 20260902020016 | 53 | 0.0 | 0.0 | 0.00 | 0.00 | 0.00 | 94 | 1006.3 | |
| 20260902014512 | 53 | 0.0 | 0.0 | 0.00 | 0.00 | 0.00 | 94 | 1006.3 | |
| 20260902013008 | 53 | 0.0 | 0.0 | 0.00 | 0.00 | 0.00 | 94 | 1006.4 | |
| 20260902011504 | 54 | 0.0 | 0.0 | 0.00 | 0.00 | 0.00 | 93 | 1006.3 | |
| 20260902010100 | 54 | 0.0 | 0.0 | 0.00 | 0.00 | 0.00 | 93 | 1006.3 | |
| 20260902004555 | 54 | 0.0 | 0.0 | 0.00 | 0.00 | 0.00 | 93 | 1006.5 | |
| 20260902003051 | 55 | 0.0 | 0.0 | 0.00 | 0.00 | 0.00 | 93 | 1006.6 | |
| 20260902001558 | 55 | 0.0 | 0.0 | 0.00 | 0.00 | 0.00 | 93 | 1006.7 | |
| 20260902000042 | 55 | 0.0 | 0.0 | 0.00 | 0.00 | 0.00 | 93 | 1006.8 | |
| 20260901234538 | 55 | 0.0 | 0.0 | 0.00 | 0.00 | 0.00 | 93 | 1006.8 | |
| 20260901233050 | 55 | 0.0 | 0.0 | 0.00 | 0.00 | 0.00 | 93 | 1006.8 | |
| 20260901231532 | 55 | 0.0 | 0.0 | 0.00 | 0.00 | 0.00 | 93 | 1006.8 | |
| 20260901230033 | 55 | 0.0 | 0.0 | 0.00 | 0.00 | 0.00 | 92 | 1006.7 | |
| 20260901224521 | 55 | 0.0 | 0.0 | 0.00 | 0.00 | 0.00 | 92 | 1006.8 | |
| 20260901223016 | 55 | 0.0 | 0.0 | 0.00 | 0.00 | 0.00 | 91 | 1006.8 | |
| 20260901221511 | 55 | 0.0 | 0.0 | 0.00 | 0.00 | 0.00 | 91 | 1006.9 | |
| 20260901220011 | 55 | 0.0 | 0.0 | 0.00 | 0.00 | 0.00 | 91 | 1006.9 | |
| 20260901214512 | 56 | 0.0 | 0.0 | 0.00 | 0.00 | 0.00 | 90 | 1006.9 | |
| 20260901213007 | 57 | 0.0 | 0.0 | 0.00 | 0.00 | 0.00 | 90 | 1006.9 | |
| 20260901211506 | 57 | 0.0 | 0.0 | 0.00 | 0.00 | 0.00 | 90 | 1006.8 | |
| 20260901210007 | 57 | 0.0 | 0.0 | 0.00 | 0.00 | 0.00 | 89 | 1006.8 | |
| 20260901204506 | 58 | 0.0 | 0.0 | 0.00 | 0.00 | 0.00 | 88 | 1006.9 | |
| 20260901203004 | 59 | 0.0 | 0.0 | 0.00 | 0.00 | 0.00 | 87 | 1006.8 | |
| 20260901201504 | 59 | 0.0 | 0.0 | 0.00 | 0.00 | 0.00 | 86 | 1006.8 | |
| 20260901200005 | 60 | 0.0 | 0.0 | 0.00 | 0.00 | 0.00 | 85 | 1006.7 | |
| 20260901194502 | 61 | 0.0 | 0.0 | 0.00 | 0.00 | 0.00 | 84 | 1006.8 | |
| 20260901193002 | 61 | 0.0 | 0.0 | 0.00 | 0.00 | 0.00 | 84 | 1006.8 | |
| 20260901191502 | 62 | 0.0 | 0.0 | 0.00 | 0.00 | 0.00 | 82 | 1006.9 | |
| 20260901190059 | 62 | 0.0 | 0.0 | 0.00 | 0.00 | 0.00 | 82 | 1007.0 | |
| 20260901184554 | 62 | 0.0 | 0.0 | 0.00 | 0.00 | 0.00 | 81 | 1006.9 | |
| 20260901183057 | 63 | 0.0 | 0.0 | 0.00 | 0.00 | 0.00 | 81 | 1006.9 | |
| 20260901181544 | 63 | 0.0 | 0.0 | 0.00 | 0.00 | 0.00 | 80 | 1006.8 | |
| 20260901180041 | 63 | 0.0 | 0.0 | 0.00 | 0.00 | 0.00 | 79 | 1006.9 | |
| 20260901174536 | 64 | 0.0 | 0.0 | 0.00 | 0.00 | 0.00 | 77 | 1006.9 | |
| 20260901173031 | 65 | 0.0 | 0.0 | 0.00 | 0.00 | 0.00 | 76 | 1006.9 | |
| 20260901171528 | 66 | 0.0 | 0.0 | 0.00 | 0.00 | 0.00 | 74 | 1007.0 | |
| 20260901170024 | 67 | 0.0 | 0.0 | 0.00 | 0.00 | 0.00 | 71 | 1007.0 | |
| 20260901164519 | 67 | 0.0 | 0.0 | 0.00 | 0.00 | 0.00 | 71 | 1007.0 | |
| 20260901163003 | 67 | 0.0 | 0.0 | 0.00 | 0.00 | 0.00 | 72 | 1007.0 | |
| 20260901161559 | 67 | 0.0 | 0.0 | 0.00 | 0.00 | 0.00 | 71 | 1007.1 | |
| 20260901160046 | 67 | 0.0 | 0.0 | 0.00 | 0.00 | 0.00 | 70 | 1007.1 | |
| 20260901154543 | 67 | 0.0 | 0.0 | 0.00 | 0.00 | 0.00 | 70 | 1007.0 | |
| 20260901153044 | 68 | 0.0 | 0.0 | 0.00 | 0.00 | 0.00 | 69 | 1007.1 | |
| 20260901151533 | 67 | 0.0 | 0.0 | 0.00 | 0.00 | 0.00 | 68 | 1007.2 | |
| 20260901150029 | 67 | 0.0 | 0.0 | 0.00 | 0.00 | 0.00 | 69 | 1007.2 | |
| 20260901144529 | 68 | 0.0 | 0.0 | 0.00 | 0.00 | 0.00 | 69 | 1007.4 | |
| 20260901143020 | 68 | 0.0 | 0.0 | 0.00 | 0.00 | 0.00 | 68 | 1007.5 | |
| 20260901141513 | 70 | 0.0 | 0.0 | 0.00 | 0.00 | 0.00 | 68 | 1007.5 | |
| 20260901140008 | 69 | 0.0 | 0.0 | 0.00 | 0.00 | 0.00 | 69 | 1007.8 | |
| 20260901134559 | 69 | 0.0 | 0.0 | 0.00 | 0.00 | 0.00 | 68 | 1008.0 | |
| 20260901133055 | 68 | 0.0 | 0.0 | 0.00 | 0.00 | 0.00 | 70 | 1008.0 | |
| 20260901131550 | 68 | 0.0 | 0.0 | 0.00 | 0.00 | 0.00 | 69 | 1008.1 | |
| 20260901130045 | 69 | 0.0 | 0.0 | 0.00 | 0.12 | 0.00 | 69 | 1008.3 | |
| 20260901124539 | 68 | 0.0 | 0.0 | 0.00 | 0.12 | 0.00 | 71 | 1008.4 | |
| 20260901123037 | 67 | 0.0 | 0.0 | 0.00 | 0.12 | 0.00 | 71 | 1008.4 | |
| 20260901121527 | 67 | 0.0 | 0.0 | 0.00 | 0.12 | 0.00 | 72 | 1008.4 | |
| 20260901120021 | 66 | 0.0 | 0.0 | 0.00 | 0.12 | 0.00 | 73 | 1008.5 | |
| 20260901114518 | 65 | 0.0 | 0.0 | 0.00 | 0.12 | 0.00 | 76 | 1008.6 | |
| 20260901113013 | 65 | 0.0 | 0.0 | 0.00 | 0.12 | 0.00 | 75 | 1008.7 | |
| 20260901111508 | 65 | 0.0 | 0.0 | 0.00 | 0.12 | 0.00 | 76 | 1008.7 | |
| 20260901110004 | 63 | 0.0 | 0.0 | 0.00 | 0.12 | 0.00 | 81 | 1008.7 | |
| 20260901104607 | 61 | 0.0 | 0.0 | 0.00 | 0.12 | 0.00 | 82 | 1008.8 | |
| 20260901103055 | 61 | 0.0 | 0.0 | 0.00 | 0.12 | 0.00 | 84 | 1008.8 | |
| 20260901101557 | 60 | 0.0 | 0.0 | 0.00 | 0.12 | 0.00 | 85 | 1008.8 | |
| 20260901100037 | 59 | 0.0 | 0.0 | 0.00 | 0.12 | 0.00 | 86 | 1008.9 |